Location: Poughquag
(41.6090°N, 73.6820°W)
Time: 23:29:11
(UTC-04:00)

Envisat - Visible Passes

Search period start: 30 May 2023 00:00
Search period end: 09 June 2023 00:00
Orbit: 763 x 765 km, 98.2° (Epoch: 30 May)

Date Brightness Start Highest point End Pass type
(mag) Time Alt. Az. Time Alt. Az. Time Alt. Az.
30 May 4.0 04:21:13 10° NNE 04:26:05 45° E 04:30:55 10° S visible
31 May 5.3 03:44:58 10° NE 03:48:41 20° E 03:52:24 10° SE visible
01 Jun 3.2 04:45:45 10° NNE 04:50:51 78° ESE 04:55:55 10° S visible
02 Jun 4.5 04:08:59 10° NNE 04:13:36 34° E 04:18:11 10° SSE visible
03 Jun 5.5 03:33:10 10° NE 03:36:08 16° E 03:39:06 10° SE visible
04 Jun 3.6 04:33:23 10° NNE 04:38:24 60° E 04:43:25 10° S visible
05 Jun 4.9 03:56:50 10° NE 04:01:05 27° E 04:05:20 10° SSE visible
06 Jun 5.7 03:21:51 10° ENE 03:23:34 12° E 03:25:17 10° ESE visible
07 Jun 4.0 04:21:04 10° NNE 04:25:57 45° E 04:30:48 10° S visible
08 Jun 5.3 03:44:48 10° NE 03:48:33 21° E 03:52:18 10° SE visible
